Location: Unspecified
(46.0725°N, 13.7344°E)
Time: 21:48:00
(UTC+01:00)

Cosmos 2058 - Pass Details

Date: 31 October 2019
Orbit: 563 x 583 km, 82.5° (Epoch: 12 November)

Event Time Altitude Azimuth Distance (km) Brightness Sun altitude
Rises 17:21:15 0° 356° (N) 2,813 6.3 -5.5°
Reaches altitude 10° 17:23:31 10° 2° (N) 1,906 5.4 -5.9°
Maximum altitude 17:27:36 48° 77° (ENE) 766 3.1 -6.6°
Drops below altitude 10° 17:31:37 10° 152° (SSE) 1,879 5.4 -7.2°
Sets 17:33:50 0° 158° (SSE) 2,769 6.3 -7.6°
